Regional Weather Roundup
Issued by NWS

Home | Current Version | Previous Version | Graphics & Text | Print | Product List | Glossary On
Versions: 1 2 3 4 5 6 7 8 9 10 11 12 13 14 15 16 17 18 19 20 21 22 23 24 25 26 27 28 29 30 31 32 33 34 35 36 37 38 39 40 41 42 43 44 45 46 47 48 49 50
475
ASUS43 KBIS 191310
RWRND

NORTH DAKOTA REGIONAL WEATHER ROUNDUP
NATIONAL WEATHER SERVICE BISMARCK ND
800 AM CDT SAT AUG 19 2017

NOTE: "FAIR" INDICATES FEW OR NO CLOUDS BELOW 12,000 FEET WITH NO
SIGNIFICANT WEATHER AND/OR OBSTRUCTIONS TO VISIBILITY.


NDZ001>003-009>011-017-191400-
NORTHWEST NORTH DAKOTA

CITY           SKY/WX    TMP DP  RH WIND       PRES   REMARKS
WILLISTON      CLEAR     63  52  67 S5        29.74S
MINOT          SUNNY     68  54  60 CALM      29.76S
MINOT AFB      SUNNY     66  54  66 S12       29.74S
$$

NDZ018>021-031>035-040>046-191400-
SOUTHWEST NORTH DAKOTA

CITY           SKY/WX    TMP DP  RH WIND       PRES   REMARKS
BISMARCK       SUNNY     61  58  90 SE6       29.84F
DICKINSON      SUNNY     59  52  77 S9        29.79S
GARRISON         N/A     61  55  81 E5        29.79F
HETTINGER ARPT SUNNY     59  52  77 SE7       29.85F
$$

NDZ004>008-012>016-024-026-027-054-191400-
NORTHEAST NORTH DAKOTA

CITY           SKY/WX    TMP DP  RH WIND       PRES   REMARKS
GRAND FORKS    SUNNY     60  57  89 SW7       29.83S
GRND FRKS AFB  SUNNY     62  55  79 SW6       29.84S
DEVILS LAKE    SUNNY     66  56  70 SW14      29.83
$$

NDZ022-023-025-028>030-036>039-047>053-191400-
SOUTHEAST NORTH DAKOTA

CITY           SKY/WX    TMP DP  RH WIND       PRES   REMARKS
FARGO          SUNNY     61  59  93 S6        29.88S
JAMESTOWN      SUNNY     60  56  86 S3        29.86F
$$





USA.gov is the U.S. government's official web portal to all federal, state and local government web resources and services.